Vereeniging Airport

Jump to: basic info | weather | frequencies | runways | comments

Related pages: nearby airports | nearby navaids | notams | map

Basic information (top)

Codes: FAVV
Location: lon -26.566401, lat 27.960800, elev 4,846 ft / 1,477 m msl
Status: medium_airport

Weather (top)

Current conditions (rec'd 2014/12/20 02:00Z):

FAVV 200200Z AUTO 05005KT //// // ////// 15/13 Q1024

Airport forecast for OR Tambo International Airport 30nm (55km) NNE (rec'd 2014/12/19 00:00Z):

TAF FAOR 192200Z 2000/2106 03006KT CAVOK PROB30 
      TEMPO 2002/2005 4000 BR BKN005 
      BECMG 2005/2007 29010KT 
     FM201000 25007KT 9999 SCT035 
      TEMPO 2012/2018 -TSRA FEW035CB 
     FM201800 34006KT CAVOK TX26/2013ZTN14/2003Z

Frequencies (top)

Verify before use: may be inaccurate or out of date.

CTAF: 122.1 MHz (CTAF)

Runways (top)

03/21: 5,266 x 72 ft (1,605 x 22 m) — paved — lighted — threshold 21 displaced 260 ft (79 m)

15/33: 3,724 x 52 ft (1,135 x 16 m) — paved — not lighted

Latest comments (top)

help: My son whom is in Grade 11 has a school ... [read]

Information: Good day this is Mpho, i just need to ... [read]

More... (top)

See also NOTAMs and nearby airports and navaids, or visit the Vereeniging Airport page at the main OurAirports website..